Theta_e
325 323 321 320 319 319 319 319 319 320 322 325 327 330 330 329 327 320 311 315 318 327 325 313 311 312 310 307 310 305 296 293 294 295 297 301 299 303 303 300 303 304 303 307 310
326 324 322 320 319 319 319 319 319 320 322 324 326 328 329 328 320 315 321 328 328 329 316 309 305 308 303 304 305 304 297 297 300 299 299 302 301 301 301 300 301 303 306 310 315
325 325 323 321 319 318 319 319 319 320 321 323 324 325 326 326 312 311 327 331 331 330 318 314 311 307 300 302 303 302 299 302 303 304 304 303 301 303 300 300 303 303 305 307 314
324 325 324 322 320 318 318 319 319 320 320 321 322 323 324 319 298 309 324 325 330 325 317 313 306 299 298 298 304 296 303 305 306 308 306 303 305 302 301 302 305 305 305 305 310
324 324 324 322 321 319 318 318 318 319 318 320 322 322 317 308 307 314 322 319 320 319 314 311 303 300 296 297 299 298 301 304 306 307 307 308 306 305 305 307 309 308 306 306 306
323 324 324 323 321 320 319 318 318 318 319 319 320 319 307 295 308 309 309 310 313 316 312 311 306 306 299 299 297 300 300 301 303 304 305 304 304 304 307 307 305 305 305 306 305
322 323 323 323 322 320 319 318 319 318 319 318 319 313 304 300 308 307 309 305 307 310 309 312 310 305 304 298 302 300 295 298 299 301 301 304 300 301 307 307 304 303 303 305 306
318 321 321 322 322 321 320 319 319 319 319 318 318 309 298 310 309 308 307 304 306 308 306 311 312 306 302 302 299 297 294 288 295 299 301 302 293 300 304 305 305 306 303 303 305
315 317 320 321 321 321 321 319 318 317 317 318 306 301 294 310 306 307 306 302 302 303 304 308 303 298 297 292 288 291 283 287 291 298 299 299 293 301 304 304 302 301 301 302 303
313 313 316 320 321 320 320 318 317 315 313 311 308 297 300 299 304 306 306 305 301 301 300 299 297 292 293 289 279 283 285 289 290 295 295 295 295 300 301 302 301 301 301 301 302
312 314 314 318 320 320 316 308 300 300 305 296 297 297 300 304 306 304 305 302 300 296 290 294 289 287 289 291 290 288 287 287 291 296 294 291 292 295 297 299 299 302 301 303 302
310 311 314 315 320 319 311 301 298 299 293 301 301 301 303 304 298 301 305 297 294 288 290 290 285 290 292 292 292 291 288 287 290 294 294 291 290 293 295 298 299 300 302 302 303
310 310 313 314 319 313 306 301 305 303 290 294 299 298 299 302 297 297 301 296 291 288 290 285 287 292 291 289 287 286 285 285 285 290 291 288 286 289 294 297 298 300 301 304 305
309 309 312 313 312 309 303 307 306 302 278 285 293 297 299 300 294 303 302 297 291 289 289 288 292 290 287 287 288 283 289 289 288 284 278 287 277 285 288 292 295 297 299 302 303
308 309 311 312 308 304 306 306 305 295 268 289 293 304 301 295 297 296 302 299 289 288 288 284 286 287 286 287 289 286 290 288 288 285 282 283 280 281 287 288 293 296 297 300 303
308 309 311 307 309 308 309 309 302 277 268 287 293 294 294 295 297 298 298 302 299 292 291 287 291 290 288 290 290 291 287 286 286 285 277 281 281 280 283 286 291 295 297 299 299
308 309 309 308 303 310 310 301 283 273 288 286 289 293 293 291 293 294 292 291 288 284 284 289 288 292 292 286 289 288 284 276 276 276 274 282 280 283 287 290 292 294 296 297 297
308 309 308 307 311 310 304 290 275 283 284 291 290 291 288 291 291 293 291 288 292 289 285 278 275 287 290 288 285 285 284 276 270 274 273 282 277 282 291 294 295 296 298 296 296
309 305 304 304 311 308 295 283 280 284 290 288 289 286 286 289 289 290 289 288 290 291 283 281 278 288 290 291 291 286 281 286 280 280 277 277 282 288 293 293 295 294 295 295 296
303 299 300 306 311 303 290 284 284 291 292 290 284 287 284 286 285 287 286 287 290 292 292 286 280 286 289 291 291 288 290 281 281 273 270 275 278 280 287 289 292 293 294 294 296
300 293 302 308 307 296 285 284 287 295 294 290 287 286 288 286 287 286 283 286 290 289 291 288 285 281 288 285 284 285 284 284 284 281 271 271 276 287 288 291 291 293 296 296 297
297 288 306 308 291 292 285 287 293 293 295 296 293 292 288 287 285 282 282 286 292 291 287 291 288 280 282 288 291 288 285 284 278 273 278 274 278 291 292 292 293 295 294 295 297
294 297 306 304 286 288 289 290 292 293 293 294 292 293 294 289 284 285 286 291 293 291 288 290 286 279 280 285 289 287 287 286 285 284 276 273 278 289 293 295 294 294 295 297 298
295 289 296 298 297 291 288 288 288 295 294 296 294 294 291 290 289 285 286 291 293 293 297 295 288 283 278 282 286 284 285 286 285 279 279 280 282 287 291 293 295 295 295 297 298
298 290 292 285 291 291 292 290 288 289 294 296 294 293 292 289 289 287 288 290 293 296 295 292 284 286 287 287 287 287 287 286 283 284 280 282 284 288 291 293 296 297 296 297 297
295 293 294 291 293 289 289 289 289 291 294 292 291 293 293 291 290 285 289 289 289 292 292 293 284 286 284 288 287 286 288 289 288 286 285 285 285 292 295 297 297 295 295 296 298
297 300 296 293 293 288 288 289 290 295 295 295 296 294 293 294 297 297 296 294 294 293 291 289 285 285 281 288 287 282 286 287 289 290 288 284 288 293 293 295 292 293 296 297 298
Wind_Speed
15 13 10 11 11 11 10 10 10 11 13 13 14 10 12 10 6 2 5 8 6 11 2 2 4 4 2 1 2 3 1 7 6 7 6 2 1 2 2 3 3 3 3 3 3
16 15 12 11 11 10 10 9 8 10 11 11 8 5 8 9 4 9 9 11 8 5 4 2 1 3 1 2 2 4 4 7 6 6 4 4 4 2 4 4 4 5 3 2 1
15 16 14 12 10 10 10 9 8 8 8 9 4 3 2 5 3 7 9 19 13 9 5 2 2 1 2 2 4 4 8 4 3 4 5 4 4 3 3 6 7 7 6 5 2
16 16 16 13 11 11 10 8 6 6 5 7 7 3 2 1 6 2 4 4 12 7 7 4 2 3 3 5 5 3 5 5 0 3 3 3 4 6 6 8 5 5 6 4 6
18 15 16 16 13 12 10 7 5 5 2 5 6 2 3 3 6 2 6 8 4 9 8 8 3 4 4 3 1 5 3 3 4 6 6 7 12 9 10 10 10 10 5 10 8
18 17 15 17 15 11 10 7 6 6 3 1 4 3 2 4 2 3 3 3 5 5 6 6 5 5 2 4 3 2 3 5 4 5 6 9 12 4 11 7 8 8 10 10 10
21 18 14 18 15 14 11 10 9 8 5 1 1 2 1 11 2 1 6 1 0 2 5 4 5 1 1 3 2 3 4 6 5 5 6 5 16 19 13 9 9 9 9 10 11
22 22 17 18 17 15 13 12 9 4 7 5 3 2 7 3 0 3 3 2 1 1 2 5 4 3 4 3 4 3 1 2 4 7 6 6 13 5 6 14 16 14 10 10 12
20 23 18 15 18 16 12 10 6 3 2 4 3 3 8 3 3 3 4 5 3 2 1 2 3 3 2 3 3 5 5 4 6 2 4 13 7 5 8 10 11 10 9 10 10
24 21 22 18 18 17 13 9 7 7 5 3 1 2 2 3 3 4 3 6 3 4 3 2 1 2 3 4 7 5 5 5 7 2 4 11 16 12 8 8 10 9 9 9 9
24 23 17 21 15 20 16 8 4 1 5 8 5 4 1 1 3 3 4 5 4 4 5 2 3 10 13 10 8 2 4 8 6 8 7 9 14 15 9 9 10 14 9 12 10
21 23 16 24 14 24 12 8 8 5 4 13 5 7 3 3 3 2 6 5 5 5 4 2 13 8 5 5 6 8 11 12 9 9 10 11 24 18 15 17 12 12 13 11 10
22 21 19 17 16 19 16 7 8 7 1 5 7 7 4 5 3 8 9 5 4 6 9 9 3 4 10 5 6 5 10 5 11 10 14 14 30 20 25 22 19 19 17 15 15
22 23 19 12 11 17 9 11 6 6 5 6 4 6 6 5 6 9 9 7 3 10 7 9 8 7 4 5 7 14 7 12 11 4 5 6 14 8 8 11 15 19 14 13 14
24 24 20 10 3 13 12 11 7 7 3 3 4 3 7 13 3 1 4 4 8 7 6 5 4 5 12 12 7 5 6 8 7 6 5 8 9 6 5 10 14 11 11 13 15
31 26 17 5 5 10 21 12 5 8 8 5 4 6 9 6 2 4 5 1 2 5 7 6 3 5 5 4 12 1 3 5 3 5 11 11 10 11 5 7 8 11 11 11 11
26 21 9 5 5 19 17 9 6 5 1 6 6 7 9 7 5 6 11 10 6 4 7 5 15 4 4 4 4 8 4 2 5 7 8 8 11 21 9 11 8 11 11 9 8
32 16 7 6 8 24 13 5 5 7 6 3 6 7 6 5 5 6 11 8 13 4 2 6 6 14 12 15 7 11 10 5 6 4 4 6 10 7 11 16 20 19 14 6 7
19 4 4 2 17 16 14 6 9 7 7 8 10 5 7 5 2 6 8 9 9 14 8 3 6 1 3 7 10 5 9 13 5 4 4 6 9 9 10 11 14 12 13 10 8
3 3 3 7 12 14 7 6 5 5 8 4 6 6 7 7 7 7 7 4 12 14 12 3 7 5 3 6 10 7 1 4 6 5 6 8 12 12 14 9 9 15 16 9 9
0 4 6 15 6 5 5 4 4 5 8 6 5 5 3 5 6 5 5 4 6 4 16 6 6 1 3 10 12 9 6 5 2 4 5 4 8 8 11 3 11 14 14 11 13
4 1 6 17 8 4 4 6 4 5 1 3 3 4 6 8 6 6 8 7 6 9 10 9 4 7 15 4 12 14 11 12 6 6 4 4 17 4 1 4 9 16 9 6 8
3 2 7 11 4 5 4 4 3 4 4 5 4 5 4 6 4 8 5 7 9 11 11 10 6 3 3 2 4 9 13 15 12 3 8 5 8 2 4 10 9 9 3 6 9
3 2 6 5 3 9 10 4 3 1 4 4 4 5 4 6 5 3 4 4 12 9 9 12 5 8 8 3 2 7 12 16 16 9 13 18 17 16 18 16 11 6 3 6 11
2 3 3 6 5 10 5 6 5 2 1 6 4 9 5 4 6 8 8 6 6 11 9 8 7 11 19 20 10 6 11 17 22 19 13 15 19 17 13 18 14 9 5 8 11
3 3 1 7 9 10 6 7 11 7 3 5 7 7 8 6 7 2 3 6 6 8 10 5 6 5 10 16 18 14 17 16 21 23 24 19 23 14 16 16 14 8 10 10 10
3 4 3 11 8 9 9 5 7 7 6 6 10 8 9 13 13 14 9 7 4 5 9 3 3 3 7 8 12 12 24 21 14 20 18 18 26 11 16 6 6 10 7 10 11
Wind_Direction
253 250 247 264 274 282 289 296 302 301 302 316 325 212 190 189 169 152 244 227 197 237 40 344 45 359 78 127 171 138 139 232 212 175 240 328 352 323 285 289 301 230 190 265 16
257 249 247 246 259 272 283 289 296 300 303 310 332 347 213 183 195 226 234 241 247 168 67 56 58 23 47 191 204 173 195 230 189 188 251 289 295 314 326 345 318 316 284 359 111
275 246 244 238 248 261 272 281 283 292 295 309 326 331 241 137 333 243 243 237 239 229 123 109 96 105 183 174 207 198 236 236 235 227 245 259 263 221 241 278 224 245 304 325 209
282 254 235 239 233 250 260 271 275 288 309 321 335 354 155 202 217 338 352 280 225 170 124 109 67 137 194 208 207 228 237 218 28 278 297 268 328 298 223 236 238 252 266 273 265
280 276 234 224 221 234 246 252 254 268 256 316 324 9 139 231 254 336 13 9 56 141 152 200 156 169 205 224 334 202 222 270 267 280 275 275 265 252 252 263 277 286 266 263 258
285 280 240 223 215 214 223 226 234 251 239 280 334 68 81 229 249 54 42 22 75 118 162 153 190 214 234 237 190 313 292 263 272 275 258 262 269 267 251 250 262 264 263 258 241
314 282 262 225 208 201 212 205 217 218 213 213 295 78 277 245 72 24 23 77 243 138 144 181 161 62 33 258 344 271 307 298 228 222 247 238 262 244 250 240 252 255 264 266 251
337 314 281 235 201 200 198 201 222 215 221 200 78 78 247 249 149 275 150 311 14 148 103 142 144 174 164 283 345 316 200 299 311 207 229 210 249 269 263 225 251 257 241 250 260
325 324 313 274 201 192 182 192 158 152 133 140 88 127 258 294 157 203 152 155 113 70 30 134 134 207 174 126 326 202 239 219 327 280 253 209 276 260 259 256 247 249 241 240 252
320 321 320 292 215 178 164 150 134 104 86 59 67 320 232 235 179 124 158 137 120 116 88 131 182 193 150 161 222 210 239 232 244 300 356 280 270 274 299 286 265 265 265 259 252
317 322 310 314 235 164 132 114 71 151 211 197 199 241 141 199 110 94 132 99 88 83 173 169 200 214 220 221 247 334 277 273 287 284 302 269 278 277 262 261 261 269 257 266 253
313 323 300 314 251 160 147 160 174 162 210 237 235 262 277 5 121 125 132 133 142 175 130 205 246 236 231 207 229 235 258 266 279 265 270 286 281 285 268 263 247 249 259 248 256
303 322 307 290 261 149 167 161 140 129 93 269 215 217 195 151 242 187 155 129 142 156 194 214 182 228 197 198 212 214 234 245 255 290 286 306 286 269 264 253 252 246 245 240 243
310 315 302 308 242 145 169 148 145 105 56 252 202 246 164 143 270 184 170 141 155 200 198 246 233 228 195 230 188 253 194 235 248 245 246 159 283 272 301 285 245 251 246 236 230
311 307 295 233 238 163 145 132 117 59 22 154 160 155 154 163 163 38 156 132 161 181 163 228 178 220 231 223 185 243 186 208 229 232 270 230 269 295 244 266 254 249 231 228 224
304 296 280 295 231 145 128 133 83 59 252 169 132 171 157 205 164 109 161 181 104 201 234 218 193 177 214 245 209 90 220 255 254 251 250 220 209 269 212 224 218 243 241 236 223
307 283 220 200 309 135 138 134 97 163 45 174 179 172 181 165 205 151 186 192 194 193 216 217 230 171 202 193 183 185 195 247 219 210 242 187 215 248 299 295 258 263 265 255 229
309 266 182 206 224 145 155 106 137 181 177 112 152 152 186 153 205 181 177 207 216 199 327 212 292 183 187 206 182 192 186 182 216 219 271 209 244 246 221 248 260 263 255 243 212
279 183 152 206 179 140 161 189 184 182 152 136 134 167 197 205 209 175 222 227 210 179 207 221 265 310 207 176 187 167 204 225 299 264 289 251 289 293 257 239 239 237 245 224 199
95 104 135 163 169 157 167 194 163 140 119 148 159 175 177 185 183 182 197 218 218 181 194 231 270 208 203 178 250 190 248 180 187 199 233 248 256 254 297 280 284 274 263 232 198
190 147 170 164 155 159 167 181 163 150 126 149 169 150 193 167 189 207 237 269 204 198 177 154 215 169 172 203 183 189 219 234 225 201 207 272 258 205 225 290 301 298 259 216 188
313 70 140 146 161 179 161 162 144 133 119 128 128 125 172 177 188 219 224 232 161 141 180 201 229 223 223 229 213 204 208 202 201 233 239 201 256 351 227 320 333 317 278 203 164
255 164 137 156 166 145 152 107 99 117 179 151 159 161 180 174 214 197 210 244 169 170 177 162 222 263 274 184 177 217 224 216 226 286 217 204 268 206 269 310 332 314 14 98 117
137 148 122 217 275 154 139 141 119 176 134 156 159 117 159 208 224 271 240 268 183 187 181 172 215 215 235 237 169 203 207 216 206 230 236 237 277 281 304 303 318 305 110 135 136
225 94 112 163 191 163 132 141 180 132 150 168 186 210 178 221 215 226 232 267 162 196 186 201 239 225 239 243 220 209 214 211 214 222 221 256 259 265 312 300 306 275 177 150 147
0 102 103 150 141 153 190 166 178 191 194 189 226 195 228 227 216 187 233 192 195 194 191 213 268 245 254 233 224 228 223 217 219 227 237 252 274 279 272 277 287 258 183 173 156
331 256 163 166 151 160 188 183 203 146 207 258 210 233 252 243 233 253 240 251 256 242 210 255 261 277 280 308 232 240 235 223 223 218 221 225 240 263 263 271 302 323 198 172 163